Time,TemperatureF,DewpointF,PressureIn,WindDirection,WindDirectionDegrees,WindSpeedMPH,WindSpeedGustMPH,Humidity,HourlyPrecipIn,Conditions,Clouds,dailyrainin,SoftwareType,DateUTC
2013-03-22 00:00:00,39.8,35.7,30.21,WNW,290,18.0,24.0,85,0.00,,,0.00,Wunderground v.1.12,2013-03-22 07:00:00,
2013-03-22 00:05:00,39.9,35.8,30.21,West,260,18.0,18.0,85,0.00,,,0.00,Wunderground v.1.12,2013-03-22 07:05:00,
2013-03-22 00:10:00,39.9,36.1,30.22,West,271,17.0,17.0,86,0.00,,,0.00,Wunderground v.1.12,2013-03-22 07:10:00,
2013-03-22 00:15:00,39.9,35.8,30.21,West,259,14.0,14.0,85,0.00,,,0.00,Wunderground v.1.12,2013-03-22 07:15:00,
2013-03-22 00:20:00,40.0,35.9,30.21,WNW,292,15.0,15.0,85,0.00,,,0.00,Wunderground v.1.12,2013-03-22 07:20:00,
2013-03-22 00:25:00,40.3,36.1,30.21,WSW,244,16.0,18.0,85,0.00,,,0.00,Wunderground v.1.12,2013-03-22 07:25:00,
2013-03-22 00:30:00,39.8,35.4,30.21,WSW,254,16.0,18.0,84,0.00,,,0.00,Wunderground v.1.12,2013-03-22 07:30:00,
2013-03-22 00:35:00,39.5,35.4,30.21,West,261,15.0,15.0,85,0.00,,,0.00,Wunderground v.1.12,2013-03-22 07:35:00,
2013-03-22 00:40:00,39.1,35.3,30.22,WSW,248,12.0,12.0,86,0.00,,,0.00,Wunderground v.1.12,2013-03-22 07:40:00,
2013-03-22 00:45:00,39.2,35.1,30.21,West,273,9.0,9.0,85,0.00,,,0.00,Wunderground v.1.12,2013-03-22 07:45:00,
2013-03-22 00:50:00,39.4,35.3,30.21,West,263,10.0,12.0,85,0.00,,,0.00,Wunderground v.1.12,2013-03-22 07:50:00,
2013-03-22 00:55:00,39.7,35.9,30.21,West,272,11.0,14.0,86,0.00,,,0.00,Wunderground v.1.12,2013-03-22 07:55:00,
2013-03-22 01:00:00,40.2,36.1,30.21,West,267,10.0,10.0,85,0.00,,,0.00,Wunderground v.1.12,2013-03-22 08:00:00,
2013-03-22 01:05:00,40.1,34.7,30.21,SW,214,9.0,9.0,81,0.00,,,0.00,Wunderground v.1.12,2013-03-22 08:05:00,
2013-03-22 01:10:00,40.5,35.1,30.21,West,273,7.0,13.0,81,0.00,,,0.00,Wunderground v.1.12,2013-03-22 08:10:00,
2013-03-22 01:15:00,40.7,34.4,30.21,NW,311,9.0,9.0,78,0.00,,,0.00,Wunderground v.1.12,2013-03-22 08:15:00,
2013-03-22 01:20:00,40.8,33.8,30.21,WNW,290,10.0,16.0,76,0.00,,,0.00,Wunderground v.1.12,2013-03-22 08:20:00,
2013-03-22 01:30:00,41.0,35.6,30.21,West,273,14.0,18.0,81,0.00,,,0.00,Wunderground v.1.12,2013-03-22 08:30:00,
2013-03-22 01:35:00,40.8,35.1,30.21,WNW,283,14.0,14.0,80,0.00,,,0.00,Wunderground v.1.12,2013-03-22 08:35:00,
2013-03-22 01:40:00,41.0,35.0,30.21,WSW,253,13.0,15.0,79,0.00,,,0.00,Wunderground v.1.12,2013-03-22 08:40:00,
2013-03-22 01:45:00,40.8,34.5,30.21,West,272,13.0,13.0,78,0.00,,,0.00,Wunderground v.1.12,2013-03-22 08:45:00,
2013-03-22 01:50:00,40.9,34.9,30.21,West,265,13.0,13.0,79,0.00,,,0.00,Wunderground v.1.12,2013-03-22 08:50:00,
2013-03-22 01:55:00,40.9,33.9,30.22,NW,306,12.0,18.0,76,0.00,,,0.00,Wunderground v.1.12,2013-03-22 08:55:00,
2013-03-22 02:00:00,40.9,33.2,30.22,West,260,10.0,10.0,74,0.00,,,0.00,Wunderground v.1.12,2013-03-22 09:00:00,
2013-03-22 02:05:00,40.8,32.8,30.22,West,270,11.0,25.0,73,0.00,,,0.00,Wunderground v.1.12,2013-03-22 09:05:00,
2013-03-22 02:10:00,40.9,33.6,30.23,East,88,7.0,9.0,75,0.00,,,0.00,Wunderground v.1.12,2013-03-22 09:10:00,
2013-03-22 02:15:00,40.8,33.2,30.22,SW,236,6.0,15.0,74,0.00,,,0.00,Wunderground v.1.12,2013-03-22 09:15:00,
2013-03-22 02:20:00,40.8,33.2,30.22,NNE,28,7.0,13.0,74,0.00,,,0.00,Wunderground v.1.12,2013-03-22 09:20:00,
2013-03-22 02:25:00,40.6,32.3,30.23,WNW,287,7.0,7.0,72,0.00,,,0.00,Wunderground v.1.12,2013-03-22 09:25:00,
2013-03-22 02:30:00,40.6,32.6,30.23,WNW,294,5.0,9.0,73,0.00,,,0.00,Wunderground v.1.12,2013-03-22 09:30:00,
2013-03-22 02:35:00,40.5,32.5,30.23,SW,218,6.0,6.0,73,0.00,,,0.00,Wunderground v.1.12,2013-03-22 09:35:00,
2013-03-22 02:40:00,40.6,33.0,30.23,ENE,68,5.0,5.0,74,0.00,,,0.00,Wunderground v.1.12,2013-03-22 09:40:00,
2013-03-22 02:45:00,40.7,33.4,30.23,NW,314,4.0,4.0,75,0.00,,,0.00,Wunderground v.1.12,2013-03-22 09:45:00,
2013-03-22 02:50:00,40.7,33.4,30.23,NNE,30,4.0,6.0,75,0.00,,,0.00,Wunderground v.1.12,2013-03-22 09:50:00,
2013-03-22 02:55:00,40.7,33.4,30.23,WSW,254,3.0,3.0,75,0.00,,,0.00,Wunderground v.1.12,2013-03-22 09:55:00,
2013-03-22 03:00:00,40.7,33.4,30.23,NNW,331,3.0,6.0,75,0.00,,,0.00,Wunderground v.1.12,2013-03-22 10:00:00,
2013-03-22 03:05:00,40.8,33.5,30.23,West,279,5.0,5.0,75,0.00,,,0.00,Wunderground v.1.12,2013-03-22 10:05:00,
2013-03-22 03:10:00,40.7,32.4,30.23,ENE,76,5.0,5.0,72,0.00,,,0.00,Wunderground v.1.12,2013-03-22 10:10:00,
2013-03-22 03:15:00,40.7,32.7,30.23,NNE,14,4.0,5.0,73,0.00,,,0.00,Wunderground v.1.12,2013-03-22 10:15:00,
2013-03-22 03:20:00,41.0,34.0,30.23,West,281,4.0,13.0,76,0.00,,,0.00,Wunderground v.1.12,2013-03-22 10:20:00,
2013-03-22 03:25:00,41.1,34.4,30.23,WSW,257,7.0,17.0,77,0.00,,,0.00,Wunderground v.1.12,2013-03-22 10:25:00,
2013-03-22 03:30:00,41.2,34.9,30.23,West,276,10.0,13.0,78,0.00,,,0.00,Wunderground v.1.12,2013-03-22 10:30:00,
2013-03-22 03:35:00,41.3,35.3,30.23,WNW,296,12.0,14.0,79,0.00,,,0.00,Wunderground v.1.12,2013-03-22 10:35:00,
2013-03-22 03:40:00,41.2,35.2,30.23,NW,321,12.0,15.0,79,0.00,,,0.00,Wunderground v.1.12,2013-03-22 10:40:00,
2013-03-22 03:45:00,41.0,35.0,30.23,West,281,12.0,12.0,79,0.00,,,0.00,Wunderground v.1.12,2013-03-22 10:45:00,
2013-03-22 03:50:00,41.0,34.7,30.23,West,261,9.0,9.0,78,0.00,,,0.00,Wunderground v.1.12,2013-03-22 10:50:00,
2013-03-22 03:55:00,41.0,35.0,30.23,SE,138,7.0,7.0,79,0.00,,,0.00,Wunderground v.1.12,2013-03-22 10:55:00,
2013-03-22 04:00:00,41.0,35.3,30.23,NNW,329,6.0,13.0,80,0.00,,,0.00,Wunderground v.1.12,2013-03-22 11:00:00,
2013-03-22 04:05:00,41.0,35.3,30.23,WSW,255,6.0,6.0,80,0.00,,,0.00,Wunderground v.1.12,2013-03-22 11:05:00,
2013-03-22 04:15:00,41.1,35.4,30.24,WNW,292,7.0,9.0,80,0.00,,,0.00,Wunderground v.1.12,2013-03-22 11:15:00,
2013-03-22 04:20:00,41.2,35.5,30.23,SW,222,9.0,10.0,80,0.00,,,0.00,Wunderground v.1.12,2013-03-22 11:20:00,
2013-03-22 04:25:00,41.1,35.4,30.24,North,9,11.0,11.0,80,0.00,,,0.00,Wunderground v.1.12,2013-03-22 11:25:00,
2013-03-22 04:30:00,40.9,35.5,30.23,SE,125,9.0,9.0,81,0.00,,,0.00,Wunderground v.1.12,2013-03-22 11:30:00,
2013-03-22 04:35:00,40.9,35.5,30.24,SE,137,6.0,6.0,81,0.00,,,0.00,Wunderground v.1.12,2013-03-22 11:35:00,
2013-03-22 04:40:00,40.7,35.0,30.24,North,5,4.0,5.0,80,0.00,,,0.00,Wunderground v.1.12,2013-03-22 11:40:00,
2013-03-22 04:45:00,40.6,34.9,30.23,ESE,111,4.0,4.0,80,0.00,,,0.00,Wunderground v.1.12,2013-03-22 11:45:00,
2013-03-22 04:50:00,40.5,35.1,30.24,East,87,3.0,3.0,81,0.00,,,0.00,Wunderground v.1.12,2013-03-22 11:50:00,
2013-03-22 04:55:00,40.4,34.7,30.24,North,355,3.0,6.0,80,0.00,,,0.00,Wunderground v.1.12,2013-03-22 11:55:00,
2013-03-22 05:00:00,40.6,35.2,30.24,NE,56,4.0,4.0,81,0.00,,,0.00,Wunderground v.1.12,2013-03-22 12:00:00,
2013-03-22 05:05:00,40.6,35.2,30.24,East,88,5.0,5.0,81,0.00,,,0.00,Wunderground v.1.12,2013-03-22 12:05:00,
2013-03-22 05:10:00,40.4,34.4,30.24,ENE,76,5.0,5.0,79,0.00,,,0.00,Wunderground v.1.12,2013-03-22 12:10:00,
2013-03-22 05:15:00,40.4,34.4,30.24,NNE,13,4.0,4.0,79,0.00,,,0.00,Wunderground v.1.12,2013-03-22 12:15:00,
2013-03-22 05:20:00,40.5,34.5,30.24,NNE,18,5.0,14.0,79,0.00,,,0.00,Wunderground v.1.12,2013-03-22 12:20:00,
2013-03-22 05:25:00,40.5,34.5,30.24,North,5,8.0,11.0,79,0.00,,,0.00,Wunderground v.1.12,2013-03-22 12:25:00,
2013-03-22 05:30:00,40.5,34.2,30.25,NW,315,10.0,10.0,78,0.00,,,0.00,Wunderground v.1.12,2013-03-22 12:30:00,
2013-03-22 05:35:00,40.5,33.9,30.24,NNE,14,10.0,11.0,77,0.00,,,0.00,Wunderground v.1.12,2013-03-22 12:35:00,
2013-03-22 05:40:00,40.5,33.9,30.24,North,360,9.0,9.0,77,0.00,,,0.00,Wunderground v.1.12,2013-03-22 12:40:00,
2013-03-22 05:45:00,40.6,34.3,30.24,NW,323,10.0,10.0,78,0.00,,,0.00,Wunderground v.1.12,2013-03-22 12:45:00,
2013-03-22 05:50:00,40.4,33.4,30.25,NNW,347,9.0,9.0,76,0.00,,,0.00,Wunderground v.1.12,2013-03-22 12:50:00,
2013-03-22 05:55:00,40.2,33.6,30.25,NNW,339,6.0,6.0,77,0.00,,,0.00,Wunderground v.1.12,2013-03-22 12:55:00,
2013-03-22 06:00:00,40.3,34.0,30.25,North,355,5.0,7.0,78,0.00,,,0.00,Wunderground v.1.12,2013-03-22 13:00:00,
2013-03-22 06:05:00,40.4,34.4,30.25,NNW,330,8.0,8.0,79,0.00,,,0.00,Wunderground v.1.12,2013-03-22 13:05:00,
2013-03-22 06:10:00,40.3,33.7,30.25,NNW,344,7.0,7.0,77,0.00,,,0.00,Wunderground v.1.12,2013-03-22 13:10:00,
2013-03-22 06:15:00,40.2,33.6,30.25,NNW,334,5.0,5.0,77,0.00,,,0.00,Wunderground v.1.12,2013-03-22 13:15:00,
2013-03-22 06:20:00,40.1,33.1,30.25,North,9,4.0,4.0,76,0.00,,,0.00,Wunderground v.1.12,2013-03-22 13:20:00,
2013-03-22 06:25:00,40.0,32.7,30.26,North,360,5.0,5.0,75,0.00,,,0.00,Wunderground v.1.12,2013-03-22 13:25:00,
2013-03-22 06:30:00,39.8,32.5,30.26,NNE,17,4.0,4.0,75,0.00,,,0.00,Wunderground v.1.12,2013-03-22 13:30:00,
2013-03-22 06:40:00,39.3,32.4,30.26,NNE,24,2.0,3.0,76,0.00,,,0.00,Wunderground v.1.12,2013-03-22 13:40:00,
2013-03-22 06:45:00,39.2,32.6,30.26,NNE,30,3.0,3.0,77,0.00,,,0.00,Wunderground v.1.12,2013-03-22 13:45:00,
2013-03-22 06:50:00,38.7,32.7,30.27,East,79,2.0,2.0,79,0.00,,,0.00,Wunderground v.1.12,2013-03-22 13:50:00,
2013-03-22 06:55:00,38.3,33.0,30.27,East,80,1.0,2.0,81,0.00,,,0.00,Wunderground v.1.12,2013-03-22 13:55:00,
2013-03-22 07:00:00,37.9,32.9,30.27,SE,139,2.0,5.0,82,0.00,,,0.00,Wunderground v.1.12,2013-03-22 14:00:00,
2013-03-22 07:05:00,37.3,32.6,30.27,ESE,104,3.0,4.0,83,0.00,,,0.00,Wunderground v.1.12,2013-03-22 14:05:00,
2013-03-22 07:10:00,36.8,32.4,30.27,ESE,105,1.0,1.0,84,0.00,,,0.00,Wunderground v.1.12,2013-03-22 14:10:00,
2013-03-22 07:15:00,36.5,32.4,30.27,ENE,63,1.0,6.0,85,0.00,,,0.00,Wunderground v.1.12,2013-03-22 14:15:00,
2013-03-22 07:20:00,36.2,32.4,30.27,NNE,25,2.0,4.0,86,0.00,,,0.00,Wunderground v.1.12,2013-03-22 14:20:00,
2013-03-22 07:25:00,36.1,32.6,30.27,East,101,2.0,5.0,87,0.00,,,0.00,Wunderground v.1.12,2013-03-22 14:25:00,
2013-03-22 07:35:00,35.3,32.4,30.28,SSE,150,6.0,6.0,89,0.00,,,0.00,Wunderground v.1.12,2013-03-22 14:35:00,
2013-03-22 07:40:00,34.8,32.2,30.28,East,96,5.0,5.0,90,0.00,,,0.00,Wunderground v.1.12,2013-03-22 14:40:00,
2013-03-22 07:45:00,34.6,32.0,30.28,ENE,78,5.0,5.0,90,0.00,,,0.00,Wunderground v.1.12,2013-03-22 14:45:00,
2013-03-22 07:50:00,34.5,32.1,30.28,East,95,4.0,12.0,91,0.00,,,0.00,Wunderground v.1.12,2013-03-22 14:50:00,
2013-03-22 07:55:00,34.8,32.4,30.28,ESE,113,4.0,6.0,91,0.00,,,0.00,Wunderground v.1.12,2013-03-22 14:55:00,
2013-03-22 08:00:00,34.6,32.2,30.28,SSE,150,5.0,6.0,91,0.00,,,0.00,Wunderground v.1.12,2013-03-22 15:00:00,
2013-03-22 08:05:00,34.2,32.1,30.28,SE,132,6.0,6.0,92,0.00,,,0.00,Wunderground v.1.12,2013-03-22 15:05:00,
2013-03-22 08:10:00,34.2,32.1,30.29,SE,138,6.0,6.0,92,0.00,,,0.00,Wunderground v.1.12,2013-03-22 15:10:00,
2013-03-22 08:15:00,34.2,32.1,30.29,ESE,113,6.0,6.0,92,0.00,,,0.00,Wunderground v.1.12,2013-03-22 15:15:00,
2013-03-22 08:20:00,34.1,32.0,30.29,ESE,118,4.0,4.0,92,0.00,,,0.00,Wunderground v.1.12,2013-03-22 15:20:00,
2013-03-22 08:25:00,34.0,31.9,30.29,SE,140,4.0,4.0,92,0.00,,,0.00,Wunderground v.1.12,2013-03-22 15:25:00,
2013-03-22 08:30:00,34.1,32.3,30.30,SSE,150,5.0,5.0,93,0.00,,,0.00,Wunderground v.1.12,2013-03-22 15:30:00,
2013-03-22 08:35:00,34.4,32.6,30.29,SSE,148,4.0,5.0,93,0.00,,,0.00,Wunderground v.1.12,2013-03-22 15:35:00,
2013-03-22 08:40:00,34.6,32.8,30.29,SE,146,4.0,6.0,93,0.00,,,0.00,Wunderground v.1.12,2013-03-22 15:40:00,
2013-03-22 08:45:00,34.7,32.9,30.29,SE,134,5.0,6.0,93,0.00,,,0.00,Wunderground v.1.12,2013-03-22 15:45:00,
2013-03-22 08:50:00,34.7,32.9,30.29,SSE,147,6.0,6.0,93,0.00,,,0.00,Wunderground v.1.12,2013-03-22 15:50:00,
2013-03-22 08:55:00,34.6,32.8,30.30,SSE,147,4.0,6.0,93,0.00,,,0.00,Wunderground v.1.12,2013-03-22 15:55:00,
2013-03-22 09:00:00,34.6,32.8,30.30,SE,143,4.0,5.0,93,0.00,,,0.00,Wunderground v.1.12,2013-03-22 16:00:00,
2013-03-22 09:05:00,34.8,33.0,30.30,SE,139,6.0,6.0,93,0.00,,,0.00,Wunderground v.1.12,2013-03-22 16:05:00,
2013-03-22 09:15:00,35.0,33.2,30.30,SSE,163,5.0,5.0,93,0.00,,,0.00,Wunderground v.1.12,2013-03-22 16:15:00,
2013-03-22 09:20:00,35.2,33.4,30.30,South,175,3.0,3.0,93,0.00,,,0.00,Wunderground v.1.12,2013-03-22 16:20:00,
2013-03-22 09:25:00,35.1,33.3,30.31,SSE,157,2.0,2.0,93,0.00,,,0.00,Wunderground v.1.12,2013-03-22 16:25:00,
2013-03-22 09:30:00,35.0,33.2,30.31,South,172,3.0,3.0,93,0.00,,,0.00,Wunderground v.1.12,2013-03-22 16:30:00,
2013-03-22 09:35:00,35.2,33.4,30.31,SSE,157,3.0,3.0,93,0.00,,,0.00,Wunderground v.1.12,2013-03-22 16:35:00,
2013-03-22 09:40:00,35.3,33.5,30.31,South,176,4.0,4.0,93,0.00,,,0.01,Wunderground v.1.12,2013-03-22 16:40:00,
2013-03-22 09:45:00,35.5,33.7,30.31,SSE,168,4.0,4.0,93,0.00,,,0.01,Wunderground v.1.12,2013-03-22 16:45:00,
2013-03-22 09:50:00,35.6,33.8,30.31,SSW,196,5.0,5.0,93,0.00,,,0.01,Wunderground v.1.12,2013-03-22 16:50:00,
2013-03-22 09:55:00,35.7,33.9,30.31,South,191,4.0,5.0,93,0.00,,,0.01,Wunderground v.1.12,2013-03-22 16:55:00,
2013-03-22 10:00:00,35.7,33.9,30.32,South,179,4.0,4.0,93,0.00,,,0.02,Wunderground v.1.12,2013-03-22 17:00:00,
2013-03-22 10:10:00,36.4,34.6,30.32,South,190,2.0,7.0,93,0.00,,,0.02,Wunderground v.1.12,2013-03-22 17:10:00,
2013-03-22 10:15:00,36.8,35.0,30.32,SSE,158,3.0,3.0,93,0.00,,,0.02,Wunderground v.1.12,2013-03-22 17:15:00,
2013-03-22 10:20:00,36.7,34.9,30.32,South,169,4.0,4.0,93,0.00,,,0.02,Wunderground v.1.12,2013-03-22 17:20:00,
2013-03-22 10:25:00,36.6,34.8,30.32,South,185,4.0,4.0,93,0.00,,,0.03,Wunderground v.1.12,2013-03-22 17:25:00,
2013-03-22 10:30:00,36.4,34.6,30.32,SSE,159,4.0,4.0,93,0.00,,,0.03,Wunderground v.1.12,2013-03-22 17:30:00,
2013-03-22 10:35:00,36.5,34.7,30.32,South,186,4.0,4.0,93,0.00,,,0.03,Wunderground v.1.12,2013-03-22 17:35:00,
2013-03-22 10:40:00,36.9,35.1,30.32,South,181,3.0,5.0,93,0.00,,,0.03,Wunderground v.1.12,2013-03-22 17:40:00,
2013-03-22 10:45:00,36.9,35.1,30.32,South,178,4.0,4.0,93,0.00,,,0.04,Wunderground v.1.12,2013-03-22 17:45:00,
2013-03-22 10:50:00,37.0,35.2,30.32,South,188,5.0,5.0,93,0.00,,,0.04,Wunderground v.1.12,2013-03-22 17:50:00,
2013-03-22 10:55:00,37.1,35.3,30.32,South,180,5.0,5.0,93,0.00,,,0.04,Wunderground v.1.12,2013-03-22 17:55:00,
2013-03-22 11:00:00,37.3,35.5,30.32,South,176,6.0,7.0,93,0.00,,,0.04,Wunderground v.1.12,2013-03-22 18:00:00,
2013-03-22 11:05:00,37.3,35.5,30.33,SSE,167,7.0,7.0,93,0.00,,,0.04,Wunderground v.1.12,2013-03-22 18:05:00,
2013-03-22 11:10:00,37.5,35.4,30.33,South,184,7.0,7.0,92,0.00,,,0.04,Wunderground v.1.12,2013-03-22 18:10:00,
2013-03-22 11:15:00,37.4,35.3,30.33,SSE,168,6.0,8.0,92,0.00,,,0.04,Wunderground v.1.12,2013-03-22 18:15:00,
2013-03-22 11:20:00,37.8,35.7,30.33,South,180,5.0,6.0,92,0.00,,,0.04,Wunderground v.1.12,2013-03-22 18:20:00,
2013-03-22 11:30:00,37.5,35.1,30.33,SSE,165,5.0,7.0,91,0.00,,,0.04,Wunderground v.1.12,2013-03-22 18:30:00,
2013-03-22 11:35:00,37.6,34.9,30.34,South,173,6.0,6.0,90,0.00,,,0.04,Wunderground v.1.12,2013-03-22 18:35:00,
2013-03-22 11:40:00,37.4,34.7,30.34,South,188,7.0,7.0,90,0.00,,,0.04,Wunderground v.1.12,2013-03-22 18:40:00,
2013-03-22 11:45:00,37.0,34.3,30.34,South,180,6.0,6.0,90,0.00,,,0.04,Wunderground v.1.12,2013-03-22 18:45:00,
2013-03-22 11:50:00,37.1,34.4,30.34,SSW,202,5.0,11.0,90,0.00,,,0.04,Wunderground v.1.12,2013-03-22 18:50:00,
2013-03-22 12:00:00,37.0,34.3,30.34,SSW,209,8.0,10.0,90,0.00,,,0.05,Wunderground v.1.12,2013-03-22 19:00:00,
2013-03-22 12:10:00,36.5,34.1,30.35,South,181,7.0,7.0,91,0.00,,,0.05,Wunderground v.1.12,2013-03-22 19:10:00,
2013-03-22 12:15:00,36.0,33.6,30.34,SSE,161,6.0,6.0,91,0.00,,,0.05,Wunderground v.1.12,2013-03-22 19:15:00,
2013-03-22 12:20:00,35.9,33.8,30.34,South,188,6.0,6.0,92,0.00,,,0.05,Wunderground v.1.12,2013-03-22 19:20:00,
2013-03-22 12:25:00,36.0,33.9,30.34,South,169,6.0,6.0,92,0.00,,,0.05,Wunderground v.1.12,2013-03-22 19:25:00,
2013-03-22 12:35:00,36.3,34.2,30.34,SSE,153,4.0,5.0,92,0.00,,,0.05,Wunderground v.1.12,2013-03-22 19:35:00,
2013-03-22 12:45:00,37.4,34.5,30.34,SSE,150,4.0,4.0,89,0.00,,,0.05,Wunderground v.1.12,2013-03-22 19:45:00,
2013-03-22 12:50:00,38.4,35.4,30.34,SSE,155,3.0,3.0,89,0.00,,,0.05,Wunderground v.1.12,2013-03-22 19:50:00,
2013-03-22 12:55:00,38.8,35.3,30.34,South,174,2.0,2.0,87,0.00,,,0.05,Wunderground v.1.12,2013-03-22 19:55:00,
2013-03-22 13:00:00,39.1,35.0,30.34,SSE,165,1.0,1.0,85,0.00,,,0.05,Wunderground v.1.12,2013-03-22 20:00:00,
2013-03-22 13:05:00,39.8,35.7,30.34,SSW,201,2.0,10.0,85,0.00,,,0.05,Wunderground v.1.12,2013-03-22 20:05:00,
2013-03-22 13:10:00,40.0,35.3,30.34,SSW,197,3.0,3.0,83,0.00,,,0.05,Wunderground v.1.12,2013-03-22 20:10:00,
2013-03-22 13:15:00,40.9,36.1,30.34,SW,230,3.0,5.0,83,0.00,,,0.05,Wunderground v.1.12,2013-03-22 20:15:00,
2013-03-22 13:20:00,41.2,36.4,30.35,WSW,238,4.0,9.0,83,0.00,,,0.05,Wunderground v.1.12,2013-03-22 20:20:00,
2013-03-22 13:25:00,41.4,36.3,30.35,South,184,6.0,6.0,82,0.00,,,0.05,Wunderground v.1.12,2013-03-22 20:25:00,
2013-03-22 13:30:00,41.1,35.4,30.35,SSW,202,5.0,5.0,80,0.00,,,0.05,Wunderground v.1.12,2013-03-22 20:30:00,
2013-03-22 13:35:00,40.9,34.9,30.35,SSE,167,4.0,4.0,79,0.00,,,0.05,Wunderground v.1.12,2013-03-22 20:35:00,
2013-03-22 13:40:00,40.7,34.7,30.35,SSE,163,4.0,4.0,79,0.00,,,0.05,Wunderground v.1.12,2013-03-22 20:40:00,
2013-03-22 13:45:00,40.6,34.6,30.35,SSW,201,4.0,4.0,79,0.00,,,0.05,Wunderground v.1.12,2013-03-22 20:45:00,
2013-03-22 13:50:00,41.3,35.9,30.34,SSE,163,3.0,3.0,81,0.00,,,0.05,Wunderground v.1.12,2013-03-22 20:50:00,
2013-03-22 13:55:00,41.3,35.0,30.34,SSW,213,4.0,9.0,78,0.00,,,0.05,Wunderground v.1.12,2013-03-22 20:55:00,
2013-03-22 14:00:00,40.8,34.1,30.34,SSE,151,4.0,6.0,77,0.00,,,0.05,Wunderground v.1.12,2013-03-22 21:00:00,
2013-03-22 14:05:00,40.8,34.8,30.34,SSE,165,4.0,4.0,79,0.00,,,0.05,Wunderground v.1.12,2013-03-22 21:05:00,
2013-03-22 14:10:00,41.0,34.7,30.34,South,187,4.0,4.0,78,0.00,,,0.05,Wunderground v.1.12,2013-03-22 21:10:00,
2013-03-22 14:15:00,41.4,35.4,30.34,SSW,207,4.0,8.0,79,0.00,,,0.05,Wunderground v.1.12,2013-03-22 21:15:00,
2013-03-22 14:20:00,41.3,35.3,30.34,SSE,153,5.0,5.0,79,0.00,,,0.05,Wunderground v.1.12,2013-03-22 21:20:00,
2013-03-22 14:25:00,40.5,34.2,30.34,SE,145,6.0,6.0,78,0.00,,,0.05,Wunderground v.1.12,2013-03-22 21:25:00,
2013-03-22 14:30:00,40.9,35.2,30.34,South,178,5.0,5.0,80,0.00,,,0.05,Wunderground v.1.12,2013-03-22 21:30:00,
2013-03-22 14:35:00,41.5,34.8,30.34,South,177,5.0,5.0,77,0.00,,,0.05,Wunderground v.1.12,2013-03-22 21:35:00,
2013-03-22 14:40:00,41.8,35.4,30.34,South,182,5.0,5.0,78,0.00,,,0.05,Wunderground v.1.12,2013-03-22 21:40:00,
2013-03-22 14:45:00,42.1,35.7,30.34,SSW,210,4.0,6.0,78,0.00,,,0.05,Wunderground v.1.12,2013-03-22 21:45:00,
2013-03-22 14:50:00,42.2,35.2,30.34,WSW,242,5.0,7.0,76,0.00,,,0.05,Wunderground v.1.12,2013-03-22 21:50:00,
2013-03-22 14:55:00,42.2,34.8,30.35,SW,225,7.0,7.0,75,0.00,,,0.05,Wunderground v.1.12,2013-03-22 21:55:00,
2013-03-22 15:00:00,42.7,34.6,30.35,South,188,6.0,6.0,73,0.00,,,0.05,Wunderground v.1.12,2013-03-22 22:00:00,
2013-03-22 15:05:00,42.0,33.6,30.35,SW,236,5.0,5.0,72,0.00,,,0.05,Wunderground v.1.12,2013-03-22 22:05:00,
2013-03-22 15:10:00,42.0,33.6,30.35,WSW,242,4.0,4.0,72,0.00,,,0.05,Wunderground v.1.12,2013-03-22 22:10:00,
2013-03-22 15:20:00,42.4,34.0,30.35,West,259,4.0,4.0,72,0.00,,,0.05,Wunderground v.1.12,2013-03-22 22:20:00,
2013-03-22 15:25:00,42.7,34.3,30.35,WSW,239,4.0,4.0,72,0.00,,,0.05,Wunderground v.1.12,2013-03-22 22:25:00,
2013-03-22 15:30:00,42.5,33.8,30.35,WSW,242,4.0,4.0,71,0.00,,,0.05,Wunderground v.1.12,2013-03-22 22:30:00,
2013-03-22 15:35:00,42.7,33.9,30.35,SW,235,4.0,4.0,71,0.00,,,0.05,Wunderground v.1.12,2013-03-22 22:35:00,
2013-03-22 15:40:00,42.8,34.4,30.34,WSW,237,3.0,3.0,72,0.00,,,0.05,Wunderground v.1.12,2013-03-22 22:40:00,
2013-03-22 15:45:00,42.8,34.4,30.34,WSW,237,3.0,4.0,72,0.00,,,0.05,Wunderground v.1.12,2013-03-22 22:45:00,
2013-03-22 15:50:00,42.8,33.7,30.34,WSW,244,4.0,4.0,70,0.00,,,0.05,Wunderground v.1.12,2013-03-22 22:50:00,
2013-03-22 15:55:00,42.8,33.3,30.34,SW,220,4.0,4.0,69,0.00,,,0.05,Wunderground v.1.12,2013-03-22 22:55:00,
2013-03-22 16:00:00,42.8,33.3,30.34,WSW,257,3.0,4.0,69,0.00,,,0.05,Wunderground v.1.12,2013-03-22 23:00:00,
2013-03-22 16:10:00,43.0,33.5,30.34,WSW,240,3.0,3.0,69,0.00,,,0.05,Wunderground v.1.12,2013-03-22 23:10:00,
2013-03-22 16:15:00,43.3,34.2,30.35,SW,221,3.0,3.0,70,0.00,,,0.05,Wunderground v.1.12,2013-03-22 23:15:00,
2013-03-22 16:20:00,43.5,34.4,30.35,SW,236,4.0,4.0,70,0.00,,,0.05,Wunderground v.1.12,2013-03-22 23:20:00,
2013-03-22 16:25:00,43.4,34.6,30.35,SW,229,4.0,7.0,71,0.00,,,0.05,Wunderground v.1.12,2013-03-22 23:25:00,
2013-03-22 16:30:00,43.5,34.4,30.35,SW,227,5.0,5.0,70,0.00,,,0.05,Wunderground v.1.12,2013-03-22 23:30:00,
2013-03-22 16:35:00,43.6,34.8,30.35,SW,232,5.0,5.0,71,0.00,,,0.05,Wunderground v.1.12,2013-03-22 23:35:00,
2013-03-22 16:40:00,43.5,34.4,30.35,SW,232,4.0,5.0,70,0.00,,,0.05,Wunderground v.1.12,2013-03-22 23:40:00,
2013-03-22 16:45:00,43.5,34.0,30.35,SW,236,4.0,4.0,69,0.00,,,0.05,Wunderground v.1.12,2013-03-22 23:45:00,
2013-03-22 16:50:00,43.5,34.4,30.35,SW,232,4.0,5.0,70,0.00,,,0.05,Wunderground v.1.12,2013-03-22 23:50:00,
2013-03-22 16:55:00,43.4,34.3,30.35,WSW,244,4.0,4.0,70,0.00,,,0.05,Wunderground v.1.12,2013-03-22 23:55:00,
2013-03-22 17:00:00,43.5,34.0,30.35,WSW,244,3.0,3.0,69,0.00,,,0.05,Wunderground v.1.12,2013-03-23 00:00:00,
2013-03-22 17:05:00,43.2,32.6,30.36,WSW,240,2.0,3.0,66,0.00,,,0.05,Wunderground v.1.12,2013-03-23 00:05:00,
2013-03-22 17:10:00,43.2,33.3,30.36,WSW,239,3.0,3.0,68,0.00,,,0.05,Wunderground v.1.12,2013-03-23 00:10:00,
2013-03-22 17:15:00,43.4,33.5,30.36,WSW,240,3.0,4.0,68,0.00,,,0.05,Wunderground v.1.12,2013-03-23 00:15:00,
2013-03-22 17:20:00,43.2,32.2,30.36,WSW,239,2.0,2.0,65,0.00,,,0.05,Wunderground v.1.12,2013-03-23 00:20:00,
2013-03-22 17:25:00,43.2,31.8,30.36,WSW,239,2.0,2.0,64,0.00,,,0.05,Wunderground v.1.12,2013-03-23 00:25:00,
2013-03-22 17:35:00,43.5,31.3,30.36,WSW,239,0.0,0.0,62,0.00,,,0.05,Wunderground v.1.12,2013-03-23 00:35:00,
2013-03-22 17:40:00,43.4,31.6,30.36,WSW,239,0.0,1.0,63,0.00,,,0.05,Wunderground v.1.12,2013-03-23 00:40:00,
2013-03-22 17:45:00,43.5,31.7,30.36,WSW,240,1.0,1.0,63,0.00,,,0.05,Wunderground v.1.12,2013-03-23 00:45:00,
2013-03-22 17:50:00,43.6,31.0,30.35,WSW,240,1.0,2.0,61,0.00,,,0.05,Wunderground v.1.12,2013-03-23 00:50:00,
2013-03-22 17:55:00,43.8,31.2,30.36,WSW,240,0.0,0.0,61,0.00,,,0.05,Wunderground v.1.12,2013-03-23 00:55:00,
2013-03-22 18:00:00,43.7,31.5,30.35,WSW,240,0.0,1.0,62,0.00,,,0.05,Wunderground v.1.12,2013-03-23 01:00:00,
2013-03-22 18:05:00,43.5,30.1,30.35,WSW,239,1.0,1.0,59,0.00,,,0.05,Wunderground v.1.12,2013-03-23 01:05:00,
2013-03-22 18:10:00,43.4,31.2,30.35,WSW,240,0.0,0.0,62,0.00,,,0.05,Wunderground v.1.12,2013-03-23 01:10:00,
2013-03-22 18:15:00,43.6,31.4,30.35,WSW,239,0.0,0.0,62,0.00,,,0.05,Wunderground v.1.12,2013-03-23 01:15:00,
2013-03-22 18:20:00,43.6,30.2,30.35,WSW,239,0.0,0.0,59,0.00,,,0.05,Wunderground v.1.12,2013-03-23 01:20:00,
2013-03-22 18:25:00,43.7,30.7,30.35,WSW,239,0.0,0.0,60,0.00,,,0.05,Wunderground v.1.12,2013-03-23 01:25:00,
2013-03-22 18:30:00,43.9,30.9,30.35,WSW,240,0.0,0.0,60,0.00,,,0.05,Wunderground v.1.12,2013-03-23 01:30:00,
2013-03-22 18:35:00,43.9,30.1,30.35,WSW,240,0.0,1.0,58,0.00,,,0.05,Wunderground v.1.12,2013-03-23 01:35:00,
2013-03-22 18:40:00,43.6,30.2,30.35,WSW,240,0.0,0.0,59,0.00,,,0.05,Wunderground v.1.12,2013-03-23 01:40:00,
2013-03-22 18:45:00,43.4,30.4,30.35,WSW,239,0.0,0.0,60,0.00,,,0.05,Wunderground v.1.12,2013-03-23 01:45:00,
2013-03-22 18:50:00,43.3,30.7,30.35,WSW,239,0.0,0.0,61,0.00,,,0.05,Wunderground v.1.12,2013-03-23 01:50:00,
2013-03-22 18:55:00,43.2,30.6,30.35,WSW,240,0.0,0.0,61,0.00,,,0.05,Wunderground v.1.12,2013-03-23 01:55:00,
2013-03-22 19:00:00,43.1,30.1,30.35,WSW,239,0.0,0.0,60,0.00,,,0.05,Wunderground v.1.12,2013-03-23 02:00:00,
2013-03-22 19:05:00,43.2,30.6,30.35,WSW,239,0.0,0.0,61,0.00,,,0.05,Wunderground v.1.12,2013-03-23 02:05:00,
2013-03-22 19:15:00,42.5,30.0,30.35,WSW,239,0.0,0.0,61,0.00,,,0.05,Wunderground v.1.12,2013-03-23 02:15:00,
2013-03-22 19:20:00,42.0,29.9,30.35,WSW,240,0.0,0.0,62,0.00,,,0.05,Wunderground v.1.12,2013-03-23 02:20:00,
2013-03-22 19:25:00,41.5,29.4,30.35,WSW,239,0.0,0.0,62,0.00,,,0.05,Wunderground v.1.12,2013-03-23 02:25:00,
2013-03-22 19:30:00,41.2,30.3,30.35,WSW,239,0.0,0.0,65,0.00,,,0.05,Wunderground v.1.12,2013-03-23 02:30:00,
2013-03-22 19:35:00,40.6,29.7,30.35,WSW,239,0.0,0.0,65,0.00,,,0.05,Wunderground v.1.12,2013-03-23 02:35:00,
2013-03-22 19:40:00,40.7,29.8,30.35,WSW,240,0.0,0.0,65,0.00,,,0.05,Wunderground v.1.12,2013-03-23 02:40:00,
2013-03-22 19:45:00,40.5,29.7,30.35,WSW,239,0.0,0.0,65,0.00,,,0.05,Wunderground v.1.12,2013-03-23 02:45:00,
2013-03-22 19:50:00,40.3,29.5,30.36,WSW,239,0.0,0.0,65,0.00,,,0.05,Wunderground v.1.12,2013-03-23 02:50:00,
2013-03-22 19:55:00,40.0,29.6,30.36,WSW,239,0.0,0.0,66,0.00,,,0.05,Wunderground v.1.12,2013-03-23 02:55:00,
2013-03-22 20:00:00,39.3,29.6,30.36,WSW,240,0.0,0.0,68,0.00,,,0.05,Wunderground v.1.12,2013-03-23 03:00:00,
2013-03-22 20:05:00,39.2,29.5,30.36,WSW,239,0.0,0.0,68,0.00,,,0.05,Wunderground v.1.12,2013-03-23 03:05:00,
2013-03-22 20:10:00,39.4,29.3,30.36,WSW,239,0.0,0.0,67,0.00,,,0.05,Wunderground v.1.12,2013-03-23 03:10:00,
2013-03-22 20:15:00,39.6,29.2,30.36,WSW,239,0.0,0.0,66,0.00,,,0.05,Wunderground v.1.12,2013-03-23 03:15:00,
2013-03-22 20:20:00,39.9,29.1,30.37,WSW,240,0.0,0.0,65,0.00,,,0.05,Wunderground v.1.12,2013-03-23 03:20:00,
2013-03-22 20:25:00,40.1,28.9,30.37,WSW,240,0.0,0.0,64,0.00,,,0.05,Wunderground v.1.12,2013-03-23 03:25:00,
2013-03-22 20:30:00,39.1,28.7,30.37,WSW,239,0.0,1.0,66,0.00,,,0.05,Wunderground v.1.12,2013-03-23 03:30:00,
2013-03-22 20:35:00,38.0,28.7,30.37,WSW,239,0.0,3.0,69,0.00,,,0.05,Wunderground v.1.12,2013-03-23 03:35:00,
2013-03-22 20:40:00,36.6,28.4,30.37,WSW,239,1.0,1.0,72,0.00,,,0.05,Wunderground v.1.12,2013-03-23 03:40:00,
2013-03-22 20:45:00,35.6,27.8,30.38,WSW,239,1.0,1.0,73,0.00,,,0.05,Wunderground v.1.12,2013-03-23 03:45:00,
2013-03-22 20:55:00,35.1,28.3,30.38,WSW,239,0.0,0.0,76,0.00,,,0.05,Wunderground v.1.12,2013-03-23 03:55:00,
2013-03-22 21:00:00,35.9,29.1,30.38,WSW,239,0.0,0.0,76,0.00,,,0.05,Wunderground v.1.12,2013-03-23 04:00:00,
2013-03-22 21:05:00,37.1,29.9,30.39,WSW,239,1.0,2.0,75,0.00,,,0.05,Wunderground v.1.12,2013-03-23 04:05:00,
2013-03-22 21:10:00,38.3,29.7,30.38,WSW,239,1.0,1.0,71,0.00,,,0.05,Wunderground v.1.12,2013-03-23 04:10:00,
2013-03-22 21:15:00,38.4,29.8,30.39,WSW,239,1.0,1.0,71,0.00,,,0.05,Wunderground v.1.12,2013-03-23 04:15:00,
2013-03-22 21:20:00,38.2,29.3,30.39,WSW,239,0.0,0.0,70,0.00,,,0.05,Wunderground v.1.12,2013-03-23 04:20:00,
2013-03-22 21:25:00,38.2,29.3,30.39,WSW,240,0.0,0.0,70,0.00,,,0.05,Wunderground v.1.12,2013-03-23 04:25:00,
2013-03-22 21:30:00,38.3,29.4,30.39,WSW,240,0.0,1.0,70,0.00,,,0.05,Wunderground v.1.12,2013-03-23 04:30:00,
2013-03-22 21:35:00,38.6,29.7,30.39,WSW,240,1.0,1.0,70,0.00,,,0.05,Wunderground v.1.12,2013-03-23 04:35:00,
2013-03-22 21:40:00,38.5,29.6,30.39,WSW,240,1.0,1.0,70,0.00,,,0.05,Wunderground v.1.12,2013-03-23 04:40:00,
2013-03-22 21:45:00,38.3,29.7,30.39,WSW,239,0.0,3.0,71,0.00,,,0.05,Wunderground v.1.12,2013-03-23 04:45:00,
2013-03-22 21:50:00,38.2,29.6,30.39,WSW,240,1.0,1.0,71,0.00,,,0.05,Wunderground v.1.12,2013-03-23 04:50:00,
2013-03-22 21:55:00,37.7,29.1,30.39,WSW,240,1.0,1.0,71,0.00,,,0.05,Wunderground v.1.12,2013-03-23 04:55:00,
2013-03-22 22:00:00,37.6,29.4,30.39,SSW,202,0.0,0.0,72,0.00,,,0.05,Wunderground v.1.12,2013-03-23 05:00:00,
2013-03-22 22:10:00,38.8,31.2,30.39,South,172,2.0,2.0,74,0.00,,,0.05,Wunderground v.1.12,2013-03-23 05:10:00,
2013-03-22 22:15:00,39.1,31.2,30.39,SSE,167,2.0,2.0,73,0.00,,,0.05,Wunderground v.1.12,2013-03-23 05:15:00,
2013-03-22 22:20:00,39.0,31.4,30.39,SSE,159,1.0,1.0,74,0.00,,,0.05,Wunderground v.1.12,2013-03-23 05:20:00,
2013-03-22 22:25:00,38.9,31.6,30.39,SSE,153,1.0,2.0,75,0.00,,,0.05,Wunderground v.1.12,2013-03-23 05:25:00,
2013-03-22 22:30:00,39.1,31.8,30.39,SSE,150,2.0,2.0,75,0.00,,,0.05,Wunderground v.1.12,2013-03-23 05:30:00,
2013-03-22 22:35:00,39.2,31.9,30.39,SSE,158,2.0,4.0,75,0.00,,,0.05,Wunderground v.1.12,2013-03-23 05:35:00,
2013-03-22 22:40:00,39.4,31.8,30.39,SE,146,3.0,3.0,74,0.00,,,0.05,Wunderground v.1.12,2013-03-23 05:40:00,
2013-03-22 22:45:00,39.4,31.8,30.38,SE,146,2.0,2.0,74,0.00,,,0.05,Wunderground v.1.12,2013-03-23 05:45:00,
2013-03-22 22:50:00,39.2,31.9,30.38,SE,146,1.0,1.0,75,0.00,,,0.05,Wunderground v.1.12,2013-03-23 05:50:00,
2013-03-22 22:55:00,39.1,32.2,30.38,SE,146,1.0,1.0,76,0.00,,,0.05,Wunderground v.1.12,2013-03-23 05:55:00,
2013-03-22 23:00:00,39.3,32.0,30.38,SE,146,2.0,2.0,75,0.00,,,0.05,Wunderground v.1.12,2013-03-23 06:00:00,
2013-03-22 23:05:00,39.5,32.2,30.38,SE,146,2.0,2.0,75,0.00,,,0.05,Wunderground v.1.12,2013-03-23 06:05:00,
2013-03-22 23:10:00,39.5,31.9,30.38,SE,146,1.0,2.0,74,0.00,,,0.05,Wunderground v.1.12,2013-03-23 06:10:00,
2013-03-22 23:15:00,39.5,31.9,30.39,SE,146,1.0,1.0,74,0.00,,,0.05,Wunderground v.1.12,2013-03-23 06:15:00,
2013-03-22 23:20:00,39.6,32.7,30.39,SE,146,1.0,1.0,76,0.00,,,0.05,Wunderground v.1.12,2013-03-23 06:20:00,
2013-03-22 23:25:00,39.6,33.0,30.39,SE,146,1.0,3.0,77,0.00,,,0.05,Wunderground v.1.12,2013-03-23 06:25:00,
2013-03-22 23:30:00,39.6,33.3,30.39,SE,146,1.0,1.0,78,0.00,,,0.05,Wunderground v.1.12,2013-03-23 06:30:00,
2013-03-22 23:35:00,39.5,33.2,30.39,SE,146,1.0,4.0,78,0.00,,,0.05,Wunderground v.1.12,2013-03-23 06:35:00,
2013-03-22 23:40:00,39.1,32.8,30.39,SE,146,1.0,2.0,78,0.00,,,0.05,Wunderground v.1.12,2013-03-23 06:40:00,
2013-03-22 23:45:00,38.9,33.3,30.39,SE,146,2.0,2.0,80,0.00,,,0.05,Wunderground v.1.12,2013-03-23 06:45:00,
2013-03-22 23:50:00,38.3,32.4,30.39,SE,146,1.0,1.0,79,0.00,,,0.05,Wunderground v.1.12,2013-03-23 06:50:00,
2013-03-22 23:55:00,38.3,33.3,30.40,SE,146,0.0,2.0,82,0.00,,,0.05,Wunderground v.1.12,2013-03-23 06:55:00,